SCP
0 0 0 0 0 0 0 -0 -0 -0 -0 -0 -0 -0 -0 -0 -0 -0 -0 -0 -0 0 0 0 0 0 0
0 0 0 0 0 0 0 0 -0 -0 -0 -0 -0 -0 -0 -0 -0 -0 -0 0 0 0 0 0 0 0 0
0 0 0 0 0 0 0 0 0 0 0 -0 -0 -0 -0 0 0 0 0 0 0 0 0 0 0 0 0
0 0 0 0 0 0 0 0 0 0 0 -0 -0 -0 0 0 0 0 0 0 0 0 0 0 0 0 0
0 0 0 0 0 0 -0 -0 0 0 -0 0 0 0 0 0 0 0 0 0 0 0 0 0 0 0 0
0 0 0 0 0 0 -0 -0 0 -0 -0 0 0 0 0 0 0 0 0 0 0 0 0 0 0 0 0
0 0 0 0 0 -0 -0 -0 0 -0 0 0 0 0 0 0 0 0 0 0 0 0 0 0 0 0 0
0 0 0 0 0 0 0 0 0 0 0 0 0 0 0 0 0 0 0 0 0 0 0 0 0 0 0
0 0 0 -0 0 0 0 0 0 0 0 0 0 0 0 0 0 0 0 0 0 0 0 0 0 0 0
0 0 0 0 0 0 0 0 0 0 0 0 0 0 0 0 0 0 0 0 0 0 0 0 0 0 0
0 0 0 0 0 0 0 0 0 0 0 0 0 0 0 0 0 0 0 0 0 0 0 0 0 0 0
0 0 0 0 0 0 0 0 0 0 0 0 0 0 0 0 0 0 0 0 0 0 0 0 0 0 0
0 0 0 0 0 0 0 0 0 0 0 0 0 0 0 0 0 0 0 0 0 0 0 0 0 0 0
0 0 0 0 0 0 0 0 0 0 0 0 0 0 0 0 0 0 0 0 0 0 0 0 0 0 0
0 0 0 0 0 0 0 0 0 0 0 0 0 0 0 0 0 0 0 0 0 0 0 0 0 0 0
0 0 0 0 0 0 0 0 0 0 0 0 0 0 0 0 0 0 0 0 0 0 0 0 0 0 0
Wind_Speed_500mb
18 17 19 20 22 21 19 20 25 27 20 20 20 21 19 20 20 21 22 22 23 24 25 28 29 30 31
22 20 20 22 22 23 21 19 18 19 17 18 20 21 20 19 18 19 22 23 22 23 25 28 28 27 27
24 22 21 21 20 20 20 19 16 15 14 14 17 19 19 18 17 19 20 21 22 23 24 26 28 27 27
25 23 21 19 19 20 19 17 15 12 12 12 13 15 15 15 16 17 18 18 18 20 23 23 23 24 25
25 23 21 18 16 16 16 14 12 11 10 9 10 11 10 12 13 13 13 14 15 17 18 19 20 22 23
27 24 24 20 16 13 12 12 10 8 7 7 6 6 7 8 9 9 11 13 14 15 17 17 20 22 24
30 28 24 22 20 18 16 12 9 6 4 2 1 3 4 6 7 9 11 13 15 17 21 24 27 29 30
32 28 26 24 23 20 17 15 12 9 6 4 5 5 6 8 10 11 11 12 13 16 22 29 32 35 38
33 30 29 25 24 22 21 17 15 12 11 10 9 9 9 10 11 12 13 17 22 27 26 31 34 39 41
37 32 30 29 30 26 18 16 12 11 11 14 12 10 11 12 13 14 19 22 28 33 37 35 37 41 42
36 33 28 27 24 22 20 20 18 17 15 12 10 10 12 17 20 22 24 29 30 34 43 44 45 45 47
35 34 33 32 33 31 27 24 22 21 19 18 14 17 19 21 24 29 30 32 35 38 45 47 48 45 39
44 43 45 44 38 31 32 30 26 23 21 19 20 23 25 27 29 30 32 34 33 37 47 50 46 34 32
48 43 44 44 44 35 31 31 28 27 26 25 27 29 30 31 33 30 31 32 30 32 39 46 34 45 35
55 50 48 46 45 38 32 34 36 34 33 31 31 31 32 32 32 28 25 24 28 33 41 29 18 15 55
64 58 54 54 48 44 33 38 37 37 37 36 34 34 33 30 28 25 25 25 33 36 31 29 28 33 33
Wind_Direction_500mb
136 126 120 115 117 114 115 111 99 106 97 80 76 76 78 72 63 51 48 46 49 49 47 46 46 43 43
146 139 129 118 121 120 120 116 108 106 97 83 76 73 69 66 63 55 46 44 45 45 45 43 44 43 42
156 147 138 133 124 122 118 120 120 117 104 86 79 74 68 69 69 65 55 45 42 43 45 43 43 43 41
163 157 152 146 144 136 132 123 117 112 109 99 87 77 71 68 64 61 54 51 46 39 38 40 39 36 31
171 169 163 165 160 147 134 129 130 119 114 109 94 82 74 62 56 51 47 43 38 38 38 32 24 16 10
181 183 180 177 173 161 158 157 147 142 127 105 86 74 56 48 40 35 29 26 28 28 21 12 2 357 353
192 194 193 190 186 190 188 184 182 177 162 115 54 29 17 7 3 4 9 14 19 12 1 359 351 344 341
201 202 201 204 205 203 204 207 208 212 217 238 271 304 317 331 340 344 345 344 343 343 342 335 332 328 326
206 207 210 211 217 221 220 222 220 228 238 250 267 282 305 325 330 339 350 349 337 328 327 324 326 320 321
217 220 219 218 226 227 219 229 241 259 268 255 269 292 309 320 333 341 326 320 319 320 317 319 313 312 314
217 220 221 224 226 220 228 239 245 257 263 284 301 309 316 323 319 312 311 309 309 314 310 310 307 307 309
221 223 226 222 227 233 239 243 248 264 264 272 283 285 292 290 299 303 302 301 318 316 310 308 308 311 312
220 221 222 225 233 240 245 244 252 260 268 271 275 279 283 289 295 301 302 306 314 312 310 316 330 336 338
230 232 231 230 237 248 246 251 255 257 258 260 267 279 284 285 294 297 301 306 312 316 317 326 333 339 333
234 232 236 234 236 242 242 239 243 247 254 260 266 269 274 284 286 288 295 301 308 306 316 321 325 302 319
232 233 232 237 239 245 243 240 242 246 250 256 261 266 271 274 275 276 287 292 294 303 315 323 322 317 325
Wind_Speed_850mb
18 17 19 20 22 21 19 20 25 27 20 20 20 21 19 20 20 21 22 22 23 24 25 28 29 30 31
22 20 20 22 22 23 21 19 18 19 17 18 20 21 20 19 18 19 22 23 22 23 25 28 28 27 27
24 22 21 21 20 20 20 19 16 15 14 14 17 19 19 18 17 19 20 21 22 23 24 26 28 27 27
25 23 21 19 19 20 19 17 15 12 12 12 13 15 15 15 16 17 18 18 18 20 23 23 23 24 25
25 23 21 18 16 16 16 14 12 11 10 9 10 11 10 12 13 13 13 14 15 17 18 19 20 22 23
27 24 24 20 16 13 12 12 10 8 7 7 6 6 7 8 9 9 11 13 14 15 17 17 20 22 24
30 28 24 22 20 18 16 12 9 6 4 2 1 3 4 6 7 9 11 13 15 17 21 24 27 29 30
32 28 26 24 23 20 17 15 12 9 6 4 5 5 6 8 10 11 11 12 13 16 22 29 32 35 38
33 30 29 25 24 22 21 17 15 12 11 10 9 9 9 10 11 12 13 17 22 27 26 31 34 39 41
37 32 30 29 30 26 18 16 12 11 11 14 12 10 11 12 13 14 19 22 28 33 37 35 37 41 42
36 33 28 27 24 22 20 20 18 17 15 12 10 10 12 17 20 22 24 29 30 34 43 44 45 45 47
35 34 33 32 33 31 27 24 22 21 19 18 14 17 19 21 24 29 30 32 35 38 45 47 48 45 39
44 43 45 44 38 31 32 30 26 23 21 19 20 23 25 27 29 30 32 34 33 37 47 50 46 34 32
48 43 44 44 44 35 31 31 28 27 26 25 27 29 30 31 33 30 31 32 30 32 39 46 34 45 35
55 50 48 46 45 38 32 34 36 34 33 31 31 31 32 32 32 28 25 24 28 33 41 29 18 15 55
64 58 54 54 48 44 33 38 37 37 37 36 34 34 33 30 28 25 25 25 33 36 31 29 28 33 33
Wind_Direction_850mb
136 126 120 115 117 114 115 111 99 106 97 80 76 76 78 72 63 51 48 46 49 49 47 46 46 43 43
146 139 129 118 121 120 120 116 108 106 97 83 76 73 69 66 63 55 46 44 45 45 45 43 44 43 42
156 147 138 133 124 122 118 120 120 117 104 86 79 74 68 69 69 65 55 45 42 43 45 43 43 43 41
163 157 152 146 144 136 132 123 117 112 109 99 87 77 71 68 64 61 54 51 46 39 38 40 39 36 31
171 169 163 165 160 147 134 129 130 119 114 109 94 82 74 62 56 51 47 43 38 38 38 32 24 16 10
181 183 180 177 173 161 158 157 147 142 127 105 86 74 56 48 40 35 29 26 28 28 21 12 2 357 353
192 194 193 190 186 190 188 184 182 177 162 115 54 29 17 7 3 4 9 14 19 12 1 359 351 344 341
201 202 201 204 205 203 204 207 208 212 217 238 271 304 317 331 340 344 345 344 343 343 342 335 332 328 326
206 207 210 211 217 221 220 222 220 228 238 250 267 282 305 325 330 339 350 349 337 328 327 324 326 320 321
217 220 219 218 226 227 219 229 241 259 268 255 269 292 309 320 333 341 326 320 319 320 317 319 313 312 314
217 220 221 224 226 220 228 239 245 257 263 284 301 309 316 323 319 312 311 309 309 314 310 310 307 307 309
221 223 226 222 227 233 239 243 248 264 264 272 283 285 292 290 299 303 302 301 318 316 310 308 308 311 312
220 221 222 225 233 240 245 244 252 260 268 271 275 279 283 289 295 301 302 306 314 312 310 316 330 336 338
230 232 231 230 237 248 246 251 255 257 258 260 267 279 284 285 294 297 301 306 312 316 317 326 333 339 333
234 232 236 234 236 242 242 239 243 247 254 260 266 269 274 284 286 288 295 301 308 306 316 321 325 302 319
232 233 232 237 239 245 243 240 242 246 250 256 261 266 271 274 275 276 287 292 294 303 315 323 322 317 325